(59291) = 1990 RM11 = 1999 CJ56 = 2001 TK80

Discovered at Socorro on 1999-02-10 by LINEAR.

Orbit

Orbit type: Main Belt

Note: WebGL enabled browser required.

epoch2024-03-31.0
epoch JD2460400.5
perihelion date2022-02-03.60104
perihelion JD2459614.10104
argument of perihelion (°)264.98212
ascending node (°)113.51211
inclination (°)7.83142
eccentricity0.1256347
perihelion distance (AU)1.9993590
Tisserand w.r.t. Jupiter3.6
ΔV w.r.t. Earth (km/sec)9.1
semimajor axis (AU)2.2866403
mean anomaly (°)224.15580
mean daily motion (°/day)0.28504080
aphelion distance (AU)2.574
period (years)3.46
P-vector [x]0.93983598
P-vector [y]0.34162596
P-vector [z]0.00016820
Q-vector [x]-0.31795722
Q-vector [y]0.87454140
Q-vector [z]0.36617010
absolute magnitude14.34
phase slope0.15
uncertainty0
referenceMPEC 2024-F62
observations used4049
oppositions20
arc length (days)12241
first opposition used1990
last opposition used2024
residual rms (arc-secs)0.53
perturbers coarse indicatorM-v
perturbers precise indicator003Ek
first observation date used1990-09-14.0
last observation date used2024-03-20.0
computer nameMPCLINUX
JD of orbit computation2456966.838218
perihelion JD uncertainty (days)5.0662E-05
argument of perihelion uncertainty (°)2.7678E-05
ascending node uncertainty (°)2.3889E-05
inclination uncertainty (°)3.4946E-06
eccentricity uncertainty 3.5057E-08
perihelion distance uncertainty (AU)8.4476E-08
Minimum Orbit Intersection Distances (in AU)
for orbit epoch: 2460400.5, reference: E2024-G17
Mercury1.64982
Venus1.2781
Earth1.01907
Mars0.5952
Jupiter2.90156
Saturn6.78373
Uranus15.9218
Neptune27.8104

Observations

4099 total observations over interval: 1990 09 14.27604 – 2024 03 20.094874
These data are available for download (format description).

Date (UT) J2000 RA J2000 Dec Magn Location Ref
1990 09 14.27604 22 33 44.00 -21 00 34.9 17.0   675 – Palomar Mountain MPC 18964
1990 09 14.31354 22 33 42.17 -21 00 49.0   675 – Palomar Mountain MPC 18964
1999 02 10.42274 11 16 31.91 +13 47 34.0 18.5   704 – Lincoln Laboratory ETS, New Mexico MPS 3943
1999 02 10.44367 11 16 30.96 +13 47 45.6 18.2   704 – Lincoln Laboratory ETS, New Mexico MPS 3943
1999 02 10.46524 11 16 29.98 +13 47 57.8 18.8   704 – Lincoln Laboratory ETS, New Mexico MPS 3943
1999 02 10.48617 11 16 29.05 +13 48 08.8 18.5   704 – Lincoln Laboratory ETS, New Mexico MPS 3943
1999 02 10.50748 11 16 28.19 +13 48 19.3 18.5   704 – Lincoln Laboratory ETS, New Mexico MPS 3943
1999 02 13.42487 11 14 17.77 +14 14 12.0 17.8   704 – Lincoln Laboratory ETS, New Mexico MPS 3943
1999 02 13.43896 11 14 17.03 +14 14 20.2 18.3   704 – Lincoln Laboratory ETS, New Mexico MPS 3943
1999 02 13.45294 11 14 16.39 +14 14 27.5 18.3   704 – Lincoln Laboratory ETS, New Mexico MPS 3943
1999 02 13.46700 11 14 15.76 +14 14 35.0 18.3   704 – Lincoln Laboratory ETS, New Mexico MPS 3943
1999 02 13.48093 11 14 15.02 +14 14 41.8 18.5   704 – Lincoln Laboratory ETS, New Mexico MPS 3943
1999 02 18.26851 11 10 18.87 +14 57 43.7 17.3 R 699 – Lowell Observatory-LONEOS MPS 4169
1999 02 18.29402 11 10 17.50 +14 57 57.6   699 – Lowell Observatory-LONEOS MPS 4169
1999 02 18.31951 11 10 16.13 +14 58 11.5   699 – Lowell Observatory-LONEOS MPS 4169
1999 02 19.53974 11 09 11.76 +15 09 09.8 18.1 V 566 – Haleakala-NEAT/GEODSS MPS 3943
1999 02 19.55052 11 09 11.19 +15 09 15.4 18.3 V 566 – Haleakala-NEAT/GEODSS MPS 3943
1999 02 19.56129 11 09 10.54 +15 09 21.1 18.5 V 566 – Haleakala-NEAT/GEODSS MPS 3943
1999 02 19.60765 11 09 08.41 +15 09 44.2 17.5 V 365 – Uto Observatory MPS 3943
1999 02 19.62640 11 09 07.37 +15 09 54.4   365 – Uto Observatory MPS 3943
1999 02 23.55157 11 05 32.80 +15 44 44.6   365 – Uto Observatory MPS 3943
1999 02 23.58038 11 05 31.10 +15 45 00.5   365 – Uto Observatory MPS 3943
2000 07 07.25614 18 03 48.66 -19 30 07.7 18.0   704 – Lincoln Laboratory ETS, New Mexico MPS 42980
2000 07 07.26955 18 03 47.85 -19 30 11.2 18.2   704 – Lincoln Laboratory ETS, New Mexico MPS 42980
2000 07 07.28258 18 03 46.97 -19 30 15.5 18.0   704 – Lincoln Laboratory ETS, New Mexico MPS 42980
2000 07 07.29523 18 03 46.14 -19 30 18.6 18.2   704 – Lincoln Laboratory ETS, New Mexico MPS 42980
2001 10 13.41018 06 55 35.93 +16 51 49.1 18.8   704 – Lincoln Laboratory ETS, New Mexico MPS 39481
2001 10 13.42595 06 55 36.94 +16 51 49.2 18.3   704 – Lincoln Laboratory ETS, New Mexico MPS 39481
2001 10 13.45736 06 55 38.93 +16 51 45.5 18.6   704 – Lincoln Laboratory ETS, New Mexico MPS 39481
2001 10 13.47306 06 55 39.95 +16 51 44.8 18.3   704 – Lincoln Laboratory ETS, New Mexico MPS 39481
2001 10 17.41064 06 59 42.14 +16 47 13.0 17.6   704 – Lincoln Laboratory ETS, New Mexico MPS 39481
2001 10 17.42673 06 59 43.08 +16 47 12.0 18.0   704 – Lincoln Laboratory ETS, New Mexico MPS 39481
2001 10 17.45880 06 59 44.93 +16 47 09.9 18.1   704 – Lincoln Laboratory ETS, New Mexico MPS 39481
2001 10 17.47507 06 59 45.81 +16 47 08.8 18.4   704 – Lincoln Laboratory ETS, New Mexico MPS 39481
2001 10 24.41182 07 05 53.31 +16 40 32.9 17.9   704 – Lincoln Laboratory ETS, New Mexico MPS 40840
2001 10 24.42810 07 05 54.07 +16 40 31.9 17.9   704 – Lincoln Laboratory ETS, New Mexico MPS 40840
2001 10 24.44419 07 05 54.83 +16 40 31.4 17.6   704 – Lincoln Laboratory ETS, New Mexico MPS 40840
2001 10 24.46014 07 05 55.56 +16 40 31.0 18.1   704 – Lincoln Laboratory ETS, New Mexico MPS 40840
2001 10 24.47616 07 05 56.29 +16 40 30.3 18.0   704 – Lincoln Laboratory ETS, New Mexico MPS 40840
2001 11 09.43881 07 14 39.21 +16 37 27.6 18.0   704 – Lincoln Laboratory ETS, New Mexico MPS 40840
2001 11 09.48277 07 14 40.04 +16 37 29.7 18.6   704 – Lincoln Laboratory ETS, New Mexico MPS 40840
2001 11 09.49693 07 14 40.20 +16 37 30.6 18.2   704 – Lincoln Laboratory ETS, New Mexico MPS 40840
2001 11 24.36480 07 14 57.52 +16 58 26.4 17.7   704 – Lincoln Laboratory ETS, New Mexico MPS 42980
2001 11 24.37926 07 14 57.25 +16 58 28.5 17.9   704 – Lincoln Laboratory ETS, New Mexico MPS 42980
2001 11 24.39364 07 14 56.98 +16 58 30.5 18.1   704 – Lincoln Laboratory ETS, New Mexico MPS 42980
2001 11 24.40892 07 14 56.70 +16 58 33.0 17.7   704 – Lincoln Laboratory ETS, New Mexico MPS 42980
2001 11 24.42370 07 14 56.45 +16 58 35.3 17.9   704 – Lincoln Laboratory ETS, New Mexico MPS 42980
2001 12 11.37822 07 05 30.69 +17 57 14.7 17.2   704 – Lincoln Laboratory ETS, New Mexico MPS 42980
2001 12 11.39349 07 05 29.93 +17 57 19.1 17.1   704 – Lincoln Laboratory ETS, New Mexico MPS 42980
2001 12 11.40893 07 05 29.13 +17 57 22.9 17.2   704 – Lincoln Laboratory ETS, New Mexico MPS 42980
2001 12 11.42422 07 05 28.32 +17 57 27.3 17.0   704 – Lincoln Laboratory ETS, New Mexico MPS 42980
2001 12 11.43949 07 05 27.50 +17 57 31.1 17.2   704 – Lincoln Laboratory ETS, New Mexico MPS 42980
2001 12 14.37390 07 02 52.86 +18 11 09.3 16.7   704 – Lincoln Laboratory ETS, New Mexico MPS 42980
2001 12 14.38910 07 02 51.98 +18 11 13.8 16.9   704 – Lincoln Laboratory ETS, New Mexico MPS 42980
2001 12 14.40431 07 02 51.12 +18 11 18.1 16.7   704 – Lincoln Laboratory ETS, New Mexico MPS 42980
2001 12 14.41951 07 02 50.24 +18 11 22.5 16.9   704 – Lincoln Laboratory ETS, New Mexico MPS 42980
2001 12 14.43472 07 02 49.38 +18 11 27.1 17.1   704 – Lincoln Laboratory ETS, New Mexico MPS 42980
2001 12 17.37214 07 00 00.86 +18 25 56.3 16.6   704 – Lincoln Laboratory ETS, New Mexico MPS 42980
2001 12 17.38734 06 59 59.92 +18 26 01.0 16.6   704 – Lincoln Laboratory ETS, New Mexico MPS 42980
2001 12 17.40255 06 59 58.96 +18 26 05.9 16.6   704 – Lincoln Laboratory ETS, New Mexico MPS 42980
2001 12 17.41778 06 59 58.08 +18 26 10.5 16.9   704 – Lincoln Laboratory ETS, New Mexico MPS 42980
2001 12 17.43299 06 59 57.06 +18 26 15.0 17.0   704 – Lincoln Laboratory ETS, New Mexico MPS 42980
2001 12 20.30392 06 57 01.56 +18 41 05.9 16.8   704 – Lincoln Laboratory ETS, New Mexico MPS 42980
2001 12 20.31912 06 57 00.57 +18 41 10.6 17.2   704 – Lincoln Laboratory ETS, New Mexico MPS 42980
2001 12 20.33420 06 56 59.57 +18 41 15.2 17.0   704 – Lincoln Laboratory ETS, New Mexico MPS 42980
2001 12 20.34978 06 56 58.54 +18 41 20.3 16.6   704 – Lincoln Laboratory ETS, New Mexico MPS 42980
2001 12 20.36487 06 56 57.60 +18 41 25.1 17.9   704 – Lincoln Laboratory ETS, New Mexico MPS 42980
2001 12 21.29404 06 55 58.63 +18 46 21.7 17.0   704 – Lincoln Laboratory ETS, New Mexico MPS 42980
2001 12 21.30906 06 55 57.61 +18 46 25.5 17.0   704 – Lincoln Laboratory ETS, New Mexico MPS 42980
2001 12 21.32408 06 55 56.62 +18 46 30.9 16.9   704 – Lincoln Laboratory ETS, New Mexico MPS 42980
2001 12 21.33944 06 55 55.61 +18 46 35.8 17.2   704 – Lincoln Laboratory ETS, New Mexico MPS 42980
2001 12 21.35450 06 55 54.63 +18 46 40.7 17.4   704 – Lincoln Laboratory ETS, New Mexico MPS 42980
2002 01 09.26020 06 34 43.04 +20 32 33.1 16.6   704 – Lincoln Laboratory ETS, New Mexico MPS 48567
2002 01 09.27533 06 34 42.01 +20 32 38.3 16.8   704 – Lincoln Laboratory ETS, New Mexico MPS 48567
2002 01 09.29044 06 34 41.03 +20 32 44.1 17.0   704 – Lincoln Laboratory ETS, New Mexico MPS 48567
2002 01 09.30557 06 34 40.00 +20 32 48.3 17.5   704 – Lincoln Laboratory ETS, New Mexico MPS 48567
2002 01 09.32223 06 34 38.89 +20 32 54.2 17.0   704 – Lincoln Laboratory ETS, New Mexico MPS 48567
2002 01 13.22853 06 30 34.72 +20 54 21.4 17.3   704 – Lincoln Laboratory ETS, New Mexico MPS 48567
2002 01 13.24366 06 30 33.77 +20 54 26.3 17.4   704 – Lincoln Laboratory ETS, New Mexico MPS 48567
2002 01 13.25880 06 30 32.82 +20 54 31.7 17.4   704 – Lincoln Laboratory ETS, New Mexico MPS 48567
2002 01 13.28911 06 30 30.89 +20 54 41.4 17.6   704 – Lincoln Laboratory ETS, New Mexico MPS 48567
2002 01 15.23828 06 28 36.03 +21 05 08.8 16.7   704 – Lincoln Laboratory ETS, New Mexico MPS 48567
2002 01 15.25345 06 28 35.11 +21 05 13.5 16.8   704 – Lincoln Laboratory ETS, New Mexico MPS 48567
2002 01 15.26863 06 28 34.19 +21 05 18.2 16.9   704 – Lincoln Laboratory ETS, New Mexico MPS 48567
2002 01 15.28380 06 28 33.28 +21 05 22.9 16.7   704 – Lincoln Laboratory ETS, New Mexico MPS 48567
